Regional Weather Roundup
Issued by NWS

Home | Current Version | Previous Version | Text Only | Print | Product List | Glossary Off
Versions: 1 2 3 4 5 6 7 8 9 10 11 12 13 14 15 16 17 18 19 20 21 22 23 24 25 26 27 28 29 30 31 32 33 34 35 36 37 38 39 40 41 42 43 44 45 46 47 48 49 50

000
ASUS43 KMKX 261411
RWRWI

WISCONSIN REGIONAL WEATHER ROUNDUP
NATIONAL WEATHER SERVICE MILWAUKEE/SULLIVAN WI
900 AM CDT SAT JUL 26 2014

NOTE: "FAIR" INDICATES FEW OR NO CLOUDS BELOW 12,000 FEET WITH NO
SIGNIFICANT WEATHER AND/OR OBSTRUCTIONS TO VISIBILITY.

WIZ001-002-006>008-014>016-023>028-261500-
NORTHWEST WISCONSIN

CITY           SKY/WX    TMP DP  RH WIND       PRES   REMARKS
SUPERIOR ARPT  SUNNY     73  62  68 W9        29.79S
ASHLAND        SUNNY     75  63  66 W9        29.79R
HAYWARD        MOSUNNY   73  64  73 VRB5      29.83R
SIREN          SUNNY     74  60  63 NW7       29.83S
RICE LAKE      PTSUNNY   74  67  79 W8        29.85R
LADYSMITH      CLOUDY    73  69  88 W7        29.85R
EAU CLAIRE     CLOUDY    72  70  93 W8        29.84R
MENOMONIE      CLOUDY    74  70  86 SW7       29.84S
NEW RICHMOND   PTSUNNY   74  69  83 CALM      29.83F
OSCEOLA        MOSUNNY   74  67  80 NE6       29.85F
$$

WIZ003>005-009-010-017-018-261500-
NORTH CENTRAL WISCONSIN

CITY           SKY/WX    TMP DP  RH WIND       PRES   REMARKS
WOODRUFF       CLOUDY    72  70  93 W7        29.81S FOG
RHINELANDER    FOG       66  66 100 W7        29.82S VSB 1
EAGLE RIVER    CLOUDY    67  67 100 W6        29.80F FOG
LAND O LAKES   CLOUDY    69  66  90 W7        29.81S
PHILLIPS       CLOUDY    68  67  97 W3        29.82R FOG
TOMAHAWK       CLOUDY    68  67  96 W5        29.83S FOG
MEDFORD        FOG       66  66  99 SW5       29.84R VSB 3/4
MERRILL        CLOUDY    68  67  97 W8        29.82F FOG
$$

WIZ029-030-035-036-043>047-261500-
CENTRAL WISCONSIN

CITY           SKY/WX    TMP DP  RH WIND       PRES   REMARKS
WAUSAU         CLOUDY    68  66  93 W7        29.82R
MOSINEE        CLOUDY    66  66 100 W8        29.84S FOG
MARSHFIELD     FOG       68  66  93 W8        29.84R VSB 3/4
STEVENS POINT  CLOUDY    67  64  87 SW10      29.84R
WAUPACA        CLOUDY    72  65  79 SW9       29.82F
WAUTOMA        CLOUDY    69  64  84 S5        29.84S
WISC RAPIDS    CLOUDY    70  65  84 W8        29.85S
CAMP DOUGLAS   CLOUDY    70  68  94 SW6       29.84F
$$

WIZ011>013-019>022-031-037>040-048>050-261500-
NORTHEAST WISCONSIN

CITY           SKY/WX    TMP DP  RH WIND       PRES   REMARKS
ANTIGO         CLOUDY    66  65  96 W8        29.83S FOG
STURGEON BAY   PTSUNNY   70  63  78 SW9       29.81F
GREEN BAY      CLOUDY    70  65  84 W7        29.81F
MANITOWOC      PTSUNNY   72  64  76 W10       29.82F
APPLETON       CLOUDY    68  64  88 SW9       29.83F
CLINTONVILLE   PTSUNNY   70  63  78 SW8       29.81S
OSHKOSH        PTSUNNY   71  64  78 SW7       29.83F
$$

WIZ032>034-041-042-053>061-261500-
SOUTHWEST WISCONSIN

CITY           SKY/WX    TMP DP  RH WIND       PRES   REMARKS
LA CROSSE      PTSUNNY   71  65  81 CALM      29.87R
SPARTA         CLOUDY    69  64  85 W6        29.87R
VIROQUA        PTSUNNY   67  67  99 W8        29.90R
BOSCOBEL       PTSUNNY   71  63  75 W5        29.86R
PRAIRIE DU CHI MOSUNNY   70  63  77 CALM      29.87R
PLATTEVILLE    CLOUDY    69  64  85 W5        29.88R
$$

WIZ056-057-062-063-064-067-068-261500-
SOUTH CENTRAL WISCONSIN

CITY           SKY/WX    TMP DP  RH WIND       PRES   REMARKS
BARABOO/DELLS  PTSUNNY   72  61  69 SW8       29.85F
LONE ROCK      CLOUDY    72  65  78 CALM      29.85F
WATERTOWN      CLOUDY    69  63  81 SW5       29.84F
MADISON        CLOUDY    70  62  76 W3        29.86R
MIDDLETON      CLOUDY    71  62  73 W3        29.86S
MONROE         CLOUDY    72  63  73 W6        29.85S
JANESVILLE     SUNNY     73  61  64 SW6       29.84
$$

WIZ051-052-058>065-066-070>072-261500-
SOUTHEAST WISCONSIN

CITY           SKY/WX    TMP DP  RH WIND       PRES   REMARKS
MILWAUKEE      PTSUNNY   71  60  68 SW5       29.85F
WAUKESHA       MOSUNNY   68  59  73 SW5       29.86S
MILWAUKEE/TIMM CLOUDY    70  59  68 SW6       29.85F
RACINE         PTSUNNY   70  61  73 E3        29.87S
BURLINGTON     PTSUNNY   68  62  80 CALM      29.85S
KENOSHA        CLOUDY    70  61  73 S3        29.85S
FOND DU LAC    PTSUNNY   69  62  78 SW7       29.85S
SHEBOYGAN      CLOUDY    70  63  78 SW5       29.84S
WEST BEND      CLOUDY    70  59  68 W7        29.85S
JUNEAU         CLOUDY    67  61  80 S3        29.86S
$$

LSZ147-162-261500-
LAKE SUPERIOR

STATION/POSITION TIME  TEMP    WIND        PRES    WAVE
                       AIR SEA DIR/SP/G            HT/PER
                 (UTC) (F)     (DEG/KT/KT) (MB)    (FT/S)
W MID LAKE BUOY  1350   52 47  250/ 12/ 12 1006.4R
PORT WING        1340   70     250/  8/ 12 1008.8R
SAXON HARBOR     1300          220/  5/  8 1007.8R
$$

LMZ867-665-643>646-261500-
LAKE MICHIGAN

STATION/POSITION TIME  TEMP    WIND        PRES    WAVE
                       AIR SEA DIR/SP/G            HT/PER
                 (UTC) (F)     (DEG/KT/KT) (MB)    (FT/S)
N MID LAKE BUOY  1350   59 55  190/ 12/ 12 1008.4R   2/ 5
NORTHPORT PIER   1300   62     190/  3/  7 1008.8S
KEWAUNEE LAKESHO 1300   53     170/  5/  8 1010.5F
SHEBOYGAN LAKESH 1400   64     170/  6/  7 1010.5F
PORT WASHINGTON  1300   63     190/  3/  6 1011.5S
ATWATER BUOY     1400   63     150/  4     1011.7F
MILWAUKEE LAKESH 1300   61     190/  1/  2   N/A
S MID LAKE BUOY  1350   63 61  140/  6/  8 1011.1F   1
KENOSHA   LAKESH 1400   66     160/  4/  6 1010.5S
$$

TC  - TEMPERATURE IN CELSIUS
VSB - VISIBILITY IN STATUTE MILES
WCI - WIND CHILL INDEX
HX  - HEAT INDEX




USA.gov is the U.S. government's official web portal to all federal, state and local government web resources and services.